Location: Boiro
(42.6475°N, 8.8834°W)
Time: 14:44:18
(UTC+02:00)

Explorer 7 - Pass Details

Date: 27 June 2022
Orbit: 482 x 668 km, 50.3° (Epoch: 15 August)

Event Time Altitude Azimuth Distance (km) Brightness Sun altitude
Rises 06:09:54 0° 294° (WNW) 2,942 10.3 -8.0°
Reaches altitude 10° 06:12:29 10° 304° (NW) 2,004 9.5 -7.7°
Maximum altitude 06:16:39 33° 9° (N) 1,021 8.8 -7.1°
Drops below altitude 10° 06:20:37 10° 74° (ENE) 1,896 10.8 -6.6°
Sets 06:22:59 0° 85° (E) 2,758 11.4 -6.2°
